This is the latest recevied weather packets stored in our database for station/object KB1FFS. If no packets are shown the sender has not sent any weather packets the latest 10 day(s).
| Time | Temp. | Humidity | Pressure | Rain* | Wind** | Luminosity | Snow |
|---|---|---|---|---|---|---|---|
| 1777298204 | 25.56° C | 79% | 1008.4 hPa | 0 mm | - | 92 W/m² | - |
| 1777297899 | 25.56° C | 80% | 1008.3 hPa | 0 mm | - | 88 W/m² | - |
| 1777297597 | 25.56° C | 80% | 1008.4 hPa | 0 mm | - | 84 W/m² | - |
| 1777297293 | 25° C | 81% | 1008.3 hPa | 0 mm | - | 79 W/m² | - |
| 1777296991 | 25° C | 82% | 1008.3 hPa | 0 mm | - | 80 W/m² | - |
| 1777296687 | 25° C | 82% | 1008.2 hPa | 0 mm | - | 73 W/m² | - |
| 1777296372 | 25° C | 82% | 1008 hPa | 0 mm | - | 67 W/m² | - |
| 1777296068 | 24.44° C | 83% | 1008.3 hPa | 0 mm | - | 66 W/m² | - |
| 1777295766 | 24.44° C | 83% | 1008 hPa | 0 mm | - | 61 W/m² | - |
| 1777295463 | 24.44° C | 83% | 1008 hPa | 0 mm | - | 58 W/m² | - |
| 1777295161 | 24.44° C | 83% | 1008.1 hPa | 0 mm | - | 54 W/m² | - |
| 1777294858 | 24.44° C | 84% | 1007.9 hPa | 0 mm | - | 50 W/m² | - |
| 1777294557 | 24.44° C | 84% | 1008 hPa | 0 mm | - | 47 W/m² | - |
| 1777294254 | 23.89° C | 84% | 1008.1 hPa | 0 mm | - | 43 W/m² | - |
| 1777293951 | 23.89° C | 84% | 1007.9 hPa | 0 mm | - | 39 W/m² | - |
| 1777293648 | 23.89° C | 84% | 1007.9 hPa | 0 mm | - | 35 W/m² | - |
| 1777293343 | 23.89° C | 84% | 1007.9 hPa | 0 mm | - | 31 W/m² | - |
| 1777293039 | 23.89° C | 84% | 1007.7 hPa | 0 mm | - | 27 W/m² | - |
| 1777292738 | 23.89° C | 84% | 1007.5 hPa | 0 mm | - | 24 W/m² | - |
| 1777292434 | 23.89° C | 84% | 1007.7 hPa | 0 mm | - | 20 W/m² | - |
| 1777292131 | 23.89° C | 84% | 1007.7 hPa | 0 mm | - | 17 W/m² | - |
| 1777291827 | 23.89° C | 84% | 1007.6 hPa | 0 mm | - | 13 W/m² | - |
| 1777291524 | 23.89° C | 84% | 1007.6 hPa | 0 mm | - | 11 W/m² | - |
| 1777291221 | 23.89° C | 84% | 1007.6 hPa | 0 mm | - | 8 W/m² | - |
| 1777290917 | 23.89° C | 84% | 1007.6 hPa | 0 mm | - | 5 W/m² | - |
* Rain latest hour (hover to see other rain measurements)
** Current wind speed in m/s (hover to see current wind gust speed)